| time (UTC) | temp C | wind direction | speed KPH | gust KPH | rain 1hr cm | rain 24hr cm | rain mn cm | humidity % | barometer mb |
| 20260504020016 | 10 | 0.0 | 0.0 | 0.00 | 0.00 | 0.00 | 87 | 1017.5 | |
| 20260504015016 | 10 | 0.0 | 0.0 | 0.00 | 0.00 | 0.00 | 87 | 1017.6 | |
| 20260504014016 | 11 | 0.0 | 3.2 | 0.00 | 0.00 | 0.00 | 88 | 1017.5 | |
| 20260504013036 | 11 | 0.0 | 0.0 | 0.00 | 0.00 | 0.00 | 87 | 1017.5 | |
| 20260504012016 | 11 | 0.0 | 0.0 | 0.00 | 0.00 | 0.00 | 86 | 1017.4 | |
| 20260504011016 | 11 | 0.0 | 3.2 | 0.00 | 0.00 | 0.00 | 86 | 1017.3 | |
| 20260504010016 | 11 | 0.0 | 1.6 | 0.00 | 0.00 | 0.00 | 85 | 1017.3 | |
| 20260504005016 | 11 | 0.0 | 1.6 | 0.00 | 0.00 | 0.00 | 83 | 1017.2 | |
| 20260504004016 | 11 | 0.0 | 0.0 | 0.00 | 0.00 | 0.00 | 82 | 1017.3 | |
| 20260504003016 | 12 | 0.0 | 1.6 | 0.00 | 0.00 | 0.00 | 81 | 1017.2 | |
| 20260504002019 | 12 | 45 | 4.8 | 9.7 | 0.00 | 0.00 | 0.00 | 83 | 1017.1 |
| 20260504001016 | 11 | 45 | 1.6 | 6.4 | 0.00 | 0.00 | 0.00 | 83 | 1017.1 |
| 20260504000016 | 11 | 45 | 1.6 | 4.8 | 0.00 | 0.00 | 0.00 | 83 | 1017.1 |
| 20260503235016 | 11 | 0.0 | 3.2 | 0.00 | 0.00 | 0.00 | 83 | 1017.2 | |
| 20260503234016 | 12 | 0.0 | 1.6 | 0.00 | 0.00 | 0.00 | 84 | 1017.4 | |
| 20260503233056 | 12 | 0.0 | 0.0 | 0.00 | 0.00 | 0.00 | 84 | 1017.5 | |
| 20260503232036 | 12 | 338 | 1.6 | 3.2 | 0.00 | 0.00 | 0.00 | 86 | 1017.6 |
| 20260503231016 | 12 | 23 | 1.6 | 4.8 | 0.00 | 0.00 | 0.00 | 86 | 1017.6 |
| 20260503230036 | 12 | 0.0 | 0.0 | 0.00 | 0.00 | 0.00 | 87 | 1017.7 | |
| 20260503225016 | 12 | 0.0 | 0.0 | 0.00 | 0.00 | 0.00 | 87 | 1017.8 | |
| 20260503224016 | 12 | 0.0 | 0.0 | 0.00 | 0.00 | 0.00 | 86 | 1017.8 | |
| 20260503223016 | 12 | 0.0 | 0.0 | 0.00 | 0.00 | 0.00 | 86 | 1017.7 | |
| 20260503222016 | 12 | 0.0 | 0.0 | 0.00 | 0.00 | 0.00 | 86 | 1017.8 | |
| 20260503221015 | 13 | 338 | 1.6 | 3.2 | 0.00 | 0.00 | 0.00 | 86 | 1017.6 |
| 20260503220036 | 13 | 338 | 1.6 | 3.2 | 0.00 | 0.00 | 0.00 | 85 | 1017.6 |
| 20260503215016 | 13 | 338 | 1.6 | 3.2 | 0.00 | 0.00 | 0.00 | 85 | 1017.6 |
| 20260503214036 | 13 | 0.0 | 0.0 | 0.00 | 0.00 | 0.00 | 84 | 1017.7 | |
| 20260503213016 | 14 | 0.0 | 0.0 | 0.00 | 0.00 | 0.00 | 82 | 1017.5 | |
| 20260503212016 | 15 | 0.0 | 1.6 | 0.00 | 0.00 | 0.00 | 82 | 1017.5 | |
| 20260503211018 | 15 | 0.0 | 3.2 | 0.00 | 0.00 | 0.00 | 81 | 1017.5 | |
| 20260503210016 | 15 | 270 | 4.8 | 11.3 | 0.00 | 0.00 | 0.00 | 80 | 1017.5 |
| 20260503205016 | 15 | 270 | 8.0 | 16.1 | 0.00 | 0.00 | 0.00 | 81 | 1017.5 |
| 20260503204016 | 15 | 270 | 3.2 | 6.4 | 0.00 | 0.00 | 0.00 | 81 | 1017.3 |
| 20260503203016 | 15 | 270 | 3.2 | 11.3 | 0.00 | 0.00 | 0.00 | 80 | 1017.2 |
| 20260503202016 | 15 | 270 | 4.8 | 9.7 | 0.00 | 0.00 | 0.00 | 82 | 1017.2 |
| 20260503201016 | 14 | 293 | 4.8 | 8.0 | 0.00 | 0.00 | 0.00 | 83 | 1017.1 |
| 20260503200036 | 14 | 315 | 1.6 | 6.4 | 0.00 | 0.00 | 0.00 | 83 | 1017.1 |
| 20260503195016 | 14 | 338 | 3.2 | 3.2 | 0.00 | 0.00 | 0.00 | 83 | 1017.1 |
| 20260503194016 | 14 | 293 | 1.6 | 3.2 | 0.00 | 0.00 | 0.00 | 83 | 1016.9 |
| 20260503193016 | 13 | 293 | 1.6 | 4.8 | 0.00 | 0.00 | 0.00 | 84 | 1016.9 |
| 20260503192016 | 13 | 0.0 | 0.0 | 0.00 | 0.00 | 0.00 | 84 | 1016.8 | |
| 20260503191016 | 13 | 0.0 | 0.0 | 0.00 | 0.00 | 0.00 | 83 | 1016.7 | |
| 20260503190016 | 14 | 0.0 | 1.6 | 0.00 | 0.00 | 0.00 | 83 | 1016.6 | |
| 20260503185016 | 14 | 315 | 1.6 | 4.8 | 0.00 | 0.00 | 0.00 | 83 | 1016.6 |
| 20260503184016 | 14 | 293 | 1.6 | 4.8 | 0.00 | 0.00 | 0.00 | 82 | 1016.5 |
| 20260503183016 | 15 | 0.0 | 3.2 | 0.00 | 0.00 | 0.00 | 82 | 1016.4 | |
| 20260503182016 | 15 | 293 | 1.6 | 3.2 | 0.00 | 0.00 | 0.00 | 81 | 1016.3 |
| 20260503181016 | 15 | 0.0 | 0.0 | 0.00 | 0.00 | 0.00 | 79 | 1016.2 | |
| 20260503180016 | 16 | 0.0 | 1.6 | 0.00 | 0.00 | 0.00 | 77 | 1016.0 | |
| 20260503175016 | 16 | 0.0 | 0.0 | 0.00 | 0.00 | 0.00 | 75 | 1015.9 | |
| 20260503174016 | 16 | 0.0 | 1.6 | 0.00 | 0.00 | 0.00 | 75 | 1015.9 | |
| 20260503173016 | 17 | 0.0 | 3.2 | 0.00 | 0.00 | 0.00 | 74 | 1015.9 | |
| 20260503172016 | 17 | 203 | 3.2 | 8.0 | 0.00 | 0.00 | 0.00 | 73 | 1016.0 |
| 20260503171015 | 17 | 203 | 8.0 | 14.5 | 0.00 | 0.00 | 0.00 | 72 | 1016.0 |
| 20260503131017 | 21 | 203 | 6.4 | 16.1 | 0.00 | 0.00 | 0.00 | 49 | 1016.3 |
| 20260503081017 | 18 | 203 | 3.2 | 11.3 | 0.00 | 0.00 | 0.00 | 41 | 1018.1 |
| 20260503072016 | 16 | 90 | 1.6 | 4.8 | 0.00 | 0.00 | 0.00 | 53 | 1018.3 |
| 20260503071017 | 16 | 158 | 3.2 | 6.4 | 0.00 | 0.00 | 0.00 | 55 | 1018.2 |
| 20260503055016 | 12 | 0.0 | 4.8 | 0.00 | 0.00 | 0.00 | 64 | 1018.4 | |
| 20260503054016 | 11 | 68 | 1.6 | 6.4 | 0.00 | 0.00 | 0.00 | 64 | 1018.4 |
| 20260503053016 | 11 | 0.0 | 0.0 | 0.00 | 0.00 | 0.00 | 65 | 1018.5 | |
| 20260503052017 | 11 | 0.0 | 0.0 | 0.00 | 0.00 | 0.00 | 66 | 1018.4 | |
| 20260503051016 | 11 | 0.0 | 0.0 | 0.00 | 0.00 | 0.00 | 67 | 1018.3 | |
| 20260503050017 | 10 | 0.0 | 0.0 | 0.00 | 0.00 | 0.00 | 69 | 1018.2 | |
| 20260503045016 | 8 | 0.0 | 0.0 | 0.00 | 0.00 | 0.00 | 70 | 1018.1 | |
| 20260503044037 | 8 | 0.0 | 0.0 | 0.00 | 0.00 | 0.00 | 72 | 1018.0 | |
| 20260503043157 | 8 | 0.0 | 0.0 | 0.00 | 0.00 | 0.00 | 72 | 1018.0 | |
| 20260503042016 | 7 | 0.0 | 0.0 | 0.00 | 0.00 | 0.00 | 73 | 1018.0 | |
| 20260503041016 | 7 | 0.0 | 0.0 | 0.00 | 0.00 | 0.00 | 73 | 1017.9 | |
| 20260503040019 | 7 | 0.0 | 0.0 | 0.00 | 0.00 | 0.00 | 71 | 1017.8 | |
| 20260503035036 | 8 | 0.0 | 0.0 | 0.00 | 0.00 | 0.00 | 69 | 1017.8 | |
| 20260503034016 | 8 | 0.0 | 0.0 | 0.00 | 0.00 | 0.00 | 67 | 1017.8 | |
| 20260503033016 | 7 | 0.0 | 0.0 | 0.00 | 0.00 | 0.00 | 68 | 1017.6 | |
| 20260503032016 | 7 | 0.0 | 0.0 | 0.00 | 0.00 | 0.00 | 68 | 1017.6 | |
| 20260503031016 | 7 | 0.0 | 0.0 | 0.00 | 0.00 | 0.00 | 69 | 1017.7 | |
| 20260503030016 | 7 | 0.0 | 0.0 | 0.00 | 0.00 | 0.00 | 70 | 1017.8 | |
| 20260503025016 | 7 | 45 | 3.2 | 6.4 | 0.00 | 0.00 | 0.00 | 70 | 1017.7 |
| 20260503024016 | 7 | 23 | 4.8 | 6.4 | 0.00 | 0.00 | 0.00 | 71 | 1017.9 |
| 20260503023016 | 8 | 45 | 1.6 | 4.8 | 0.00 | 0.00 | 0.00 | 70 | 1018.0 |
| 20260503022016 | 7 | 0.0 | 3.2 | 0.00 | 0.00 | 0.00 | 70 | 1018.1 | |
| 20260503021016 | 8 | 0.0 | 1.6 | 0.00 | 0.00 | 0.00 | 71 | 1018.1 |